Weather in Ouargla

Algeria     31°57′20″N   5°19′35″E
temp.,
°C
wind,
m/s
gust,
m/s
humid.,
%
clouds,
%
prec.,
mm/h
press.,
hPa
HPBL,
m
24 july, sat
sat2401:00+33se47200 0.0 1012114
04:00+31se45210 0.0 101255
07:00+31sse35160 0.0 1013107
10:00+36se45110 0.0 1014821
13:00+39se23100 0.0 10121965
16:00+41ene33110 0.0 10102936
19:00+40ene34120 0.0 101075
22:00+36e45160 0.0 101151
25 july, sun
sun2501:00+34ese57180 0.0 101175
04:00+32se44160 0.0 101034
07:00+31se34130 0.0 101251
10:00+39se4580 0.0 1012782
13:00+41ese5580 0.0 10103156
16:00+43e5570 0.0 10083350
19:00+40e5780 0.0 1007131
22:00+36ese4480 0.0 100935
26 july, mon
mon2601:00+33se33100 0.0 100912
04:00+32se44110 0.0 100821
07:00+31se33120 0.0 101021
10:00+38sse56100 0.0 1011759
13:00+42sse5570 0.0 10093398
16:00+43se5470 0.0 10073624
19:00+40ese4570 0.0 100770
22:00+36ese5680 0.0 100956
27 july, tue
tue2701:00+34ese56110 0.0 100956
04:00+32se57110 0.0 100972
07:00+31ese47130 0.0 1010114
10:00+39se46100 0.0 1011734
13:00+42se4470 0.0 10103117
16:00+43e4460 0.0 10083444
19:00+41e5770 0.0 1008115
22:00+37e4590 0.0 101049
28 july, wed
wed2801:00+34ese58140 0.0 101196
04:00+32e45150 0.0 101046
07:00+31e34160 0.0 101180
10:00+38se56110 0.0 1012690
13:00+42e5670 0.0 10112879
16:00+43ene6670 0.0 10103187
19:00+40ene5880 0.0 1010145
22:00+35e59120 0.0 1012109